Regional Weather Roundup
Issued by NWS Jackson, KY

Home | Current Version | Previous Version | Text Only | Print | Product List | Glossary Off
Versions: 1 2 3 4 5 6 7 8 9 10 11 12 13 14 15 16 17 18 19 20 21 22 23 24 25 26 27 28 29 30 31 32 33 34 35 36 37 38 39 40 41 42 43 44 45 46 47 48 49 50

000
ASUS43 KJKL 230110
RWRJKL

EAST KENTUCKY HOURLY WEATHER ROUNDUP
NATIONAL WEATHER SERVICE JACKSON KY
800 PM EST MON JAN 22 2018

NOTE: "FAIR" INDICATES FEW OR NO CLOUDS BELOW 12,000 FEET WITH
NO SIGNIFICANT WEATHER AND/OR OBSTRUCTIONS TO VISIBILITY.

* THESE REPORTS ARE NOT UNDER NWS QUALITY CONTROL AND MAY NOT
  REPORT WEATHER SUCH AS PRECIPITATION AND FOG.

KYZ079-080-083-085-087-088-110-112-115-119-120-230200
...EASTERN KENTUCKY...

CITY           SKY/WX    TMP DP  RH WIND       PRES   REMARKS
JACKSON        MOCLDY    56  46  69 VRB3      29.74F
LONDON         CLOUDY    59  51  75 S12G25    29.73F
SOMERSET*      MOCLDY    55  50  82 S16G24    29.71F
MONTICELLO*    CLOUDY    61  53  75 S17G29    29.70F
WILLIAMSBURG*  CLOUDY    57  54  88 SE10      29.75F
MIDDLESBORO*   CLOUDY    50  50 100 CALM      29.81F
HARLAN APT*    MOCLDY    55  45  67 CALM      29.81F
PIKE CO APT*     N/A     59  45  60 S9G23     29.77F
BIG SANDY APT*   N/A     60  45  57 S13       29.75F
MOREHEAD APT*  CLOUDY    57  46  67 S9G16     29.71F
ASHLAND*       CLOUDY    57  47  69 E7        29.72F
$$

KYZ035-036-041-042-044-050-067-078-099-230200
...CENTRAL KENTUCKY...

CITY           SKY/WX    TMP DP  RH WIND       PRES   REMARKS
MT STERLING*   CLOUDY    57  50  77 S14G23    29.69F
FLEMING/MASON* CLOUDY    56  50  79 S16       29.67F
DANVILLE*      CLOUDY    55  52  88 SW12G22   29.69R
LEXINGTON      CLOUDY    59  51  75 S20G30    29.66S
FRANKFORT      CLOUDY    58  50  75 S13       29.63S
LOUISVILLE     MOCLDY    60  52  74 S10       29.60R
LEBANON*         N/A     59  50  72 S17G29    29.63F
GLASGOW*       CLOUDY    60  53  75 S10G18    29.66F
BOWLING GREEN    N/A     61  50  67 SW17G31   29.67R
$$

KYZ091>093-OHZ055-061-077-WVZ005-015-034-035-042-230200
...SOUTHERN OHIO/WEST VIRGINIA...

CITY           SKY/WX    TMP DP  RH WIND       PRES   REMARKS
COVINGTON        N/A     56  53  90 S21       29.58F
COLUMBUS       CLOUDY    56  49  77 S16G23    29.67F
DAYTON         LGT RAIN  53  52  96 S12       29.61F
WILMINGTON     CLOUDY    55  50  83 S15       29.64F
HUNTINGTON     MOCLDY    60  44  55 SE8       29.72F
CHARLESTON     LGT RAIN  58  48  69 SE10      29.77F
BECKLEY        CLOUDY    53  42  66 SE9       29.87F
BLUEFIELD      CLOUDY    52  42  69 VRB3G16   29.91F
LOGAN CO APT*  CLOUDY    61  45  55 S14G23    29.79F
$$

VAZ002-007-008-TNZ017-027-036-066-071-230200
...SOUTHWEST VIRGINIA/EAST TENNESSEE...

CITY           SKY/WX    TMP DP  RH WIND       PRES   REMARKS
WISE*          MOCLDY    54  46  76 S14       29.86S
JONESVILLE*    CLOUDY    57  48  72 SE3       29.85F
ABINGDON*      CLOUDY    57  47  69 S3        29.90F
BRISTOL        CLOUDY    58  48  69 SE8       29.88F
MORRISTOWN*    CLOUDY    55  48  76 SE5       29.82F
SEVIERVILLE*   PTCLDY    57  48  72 CALM      29.81F
KNOXVILLE        N/A     56  51  84 SW10      29.80
LAFOLLETTE*    CLOUDY    55  54  94 S10G20    29.84S
OAK RIDGE      CLOUDY    51  51 100 CALM      29.83  FOG
CROSSVILLE     CLOUDY    55  52  89 S13G24    29.79F
NASHVILLE      MOCLDY    62  52  69 SW15G26   29.73R
$$

...KEY TO REMARKS...
VSB - VISIBILITY IN MILES
WCI - WIND CHILL INDEX
HX  - HEAT INDEX

$$



USA.gov is the U.S. government's official web portal to all federal, state and local government web resources and services.